User: anonymous
Location: Wawayanda State Park
(41.1833°N, 74.4333°W)
Time: 17:35:16
(UTC-04:00)
Language:

RESURS DK-1 - Orbit

View from above orbital plane
View from above orbital plane
View from above satellite
View from above satellite

Ground track
Ground track

The orbit data is extracted from the following two-line orbital elements,

1 29228U 06021A   14260.55613618  .00001093  00000-0  93423-4 0  2294
2 29228 069.9374 129.6634 0001762 074.2771 285.8594 15.00809485457432
Epoch (UTC): 17 September 2014 13:20:50
Eccentricity: 0.0001762
inclination: 69.9374°
perigee height: 563 km
apogee height: 565 km
right ascension of ascending node: 129.6634°
argument of perigee: 74.2771°
revolutions per day: 15.00809485
mean anomaly at epoch: 285.8594°
orbit number at epoch: 45743

The dashed part of the orbit path shows where the satellite is in the earth's shadow,  

DLR